• In Uzbekistan
  • List of Countries
  • For 7 days
  • Water Temperature
  • Satellite Maps
  • Weather Map
  • Weather Widgets
  • user-avatar
    Login

    Hourly Weather Prutz

    Today, 24 March, Sunday

    Time Temperature Precipitation Wind Pressure Humidity
    00:00 +2°C° 0 mm 2 mps 636 mmHg 77%
    01:00 +2°C° 0 mm 2 mps 636 mmHg 69%
    02:00 +2°C° 0 mm 2 mps 636 mmHg 67%
    03:00 +2°C° 0 mm 2 mps 636 mmHg 66%
    04:00 +1°C° 0 mm 2 mps 635 mmHg 64%
    05:00 +1°C° 0 mm 2 mps 635 mmHg 64%
    06:00 +1°C° 0 mm 2 mps 635 mmHg 63%
    07:00 +2°C° 0 mm 2 mps 636 mmHg 61%
    08:00 +4°C° 0 mm 2 mps 636 mmHg 68%
    09:00 +7°C° 0 mm 1 mps 636 mmHg 75%
    10:00 +9°C° 0 mm 1 mps 636 mmHg 82%
    11:00 +9°C° 0 mm 1 mps 636 mmHg 81%
    12:00 +10°C° 0 mm 1 mps 636 mmHg 79%
    13:00 +10°C° 0 mm 1 mps 636 mmHg 78%
    14:00 +10°C° 0 mm 1 mps 635 mmHg 80%
    15:00 +10°C° 0 mm 1 mps 635 mmHg 81%
    16:00 +9°C° 0 mm 1 mps 635 mmHg 83%
    17:00 +7°C° 0 mm 1 mps 634 mmHg 87%
    18:00 +5°C° 0 mm 1 mps 633 mmHg 91%
    19:00 +3°C° 0 mm 1 mps 633 mmHg 95%
    20:00 +3°C° 0 mm 1 mps 633 mmHg 95%
    21:00 +3°C° 0 mm 1 mps 633 mmHg 95%
    22:00 +3°C° 0 mm 1 mps 634 mmHg 95%
    23:00 +3°C° 0 mm 1 mps 633 mmHg 95%

    Tomorrow, 25 March, Monday

    Time Temperature Precipitation Wind Pressure Humidity
    00:00 +3°C° 0 mm 1 mps 633 mmHg 95%
    01:00 +2°C° 0 mm 1 mps 633 mmHg 96%
    02:00 +2°C° 0 mm 1 mps 633 mmHg 96%
    03:00 +2°C° 0 mm 1 mps 632 mmHg 96%
    04:00 +2°C° 0 mm 1 mps 632 mmHg 96%
    05:00 +2°C° 0 mm 1 mps 632 mmHg 96%
    06:00 +2°C° 0 mm 1 mps 632 mmHg 97%
    07:00 +2°C° 0 mm 1 mps 632 mmHg 97%
    08:00 +2°C° 0.1 mm 2 mps 632 mmHg 93%
    09:00 +3°C° 0.1 mm 2 mps 632 mmHg 90%
    10:00 +3°C° 0.1 mm 2 mps 632 mmHg 86%
    11:00 +2°C° 0.2 mm 3 mps 632 mmHg 85%
    12:00 +2°C° 0.2 mm 3 mps 631 mmHg 85%
    13:00 +2°C° 0.2 mm 3 mps 631 mmHg 84%
    14:00 +1°C° 0.4 mm 3 mps 631 mmHg 86%
    15:00 0°C° 0.4 mm 3 mps 630 mmHg 88%
    16:00 0°C° 0.4 mm 3 mps 630 mmHg 90%
    17:00 -2°C° 1.1 mm 3 mps 630 mmHg 92%
    18:00 -4°C° 1.1 mm 3 mps 630 mmHg 94%
    19:00 -5°C° 1.1 mm 4 mps 630 mmHg 96%
    20:00 -7°C° 0.7 mm 4 mps 631 mmHg 95%
    21:00 -8°C° 0.7 mm 4 mps 631 mmHg 95%
    22:00 -8°C° 0.7 mm 4 mps 631 mmHg 95%
    23:00 -8°C° 0.2 mm 3 mps 632 mmHg 95%

    Day after tomorrow, 26 March, Tuesday

    Time Temperature Precipitation Wind Pressure Humidity
    00:00 -7°C° 0.2 mm 2 mps 632 mmHg 95%
    01:00 -8°C° 0.2 mm 2 mps 632 mmHg 95%
    02:00 -8°C° 0.3 mm 2 mps 632 mmHg 94%
    03:00 -8°C° 0.3 mm 2 mps 633 mmHg 94%
    04:00 -8°C° 0.3 mm 3 mps 633 mmHg 94%
    05:00 -8°C° 0 mm 2 mps 633 mmHg 94%
    06:00 -8°C° 0 mm 2 mps 633 mmHg 94%
    07:00 -9°C° 0 mm 2 mps 633 mmHg 94%
    08:00 -7°C° 0 mm 2 mps 634 mmHg 88%
    09:00 -6°C° 0 mm 2 mps 635 mmHg 82%
    10:00 -5°C° 0 mm 3 mps 636 mmHg 76%
    11:00 -4°C° 0 mm 3 mps 636 mmHg 74%
    12:00 -4°C° 0 mm 3 mps 636 mmHg 73%
    13:00 -2°C° 0 mm 3 mps 636 mmHg 71%
    14:00 -2°C° 0 mm 3 mps 636 mmHg 73%
    15:00 -2°C° 0 mm 3 mps 635 mmHg 74%
    16:00 -2°C° 0 mm 3 mps 635 mmHg 76%
    17:00 -3°C° 0 mm 2 mps 635 mmHg 82%
    18:00 -5°C° 0 mm 2 mps 635 mmHg 87%
    19:00 -4°C° 0 mm 1 mps 635 mmHg 92%
    20:00 -6°C° 0 mm 1 mps 635 mmHg 92%
    21:00 -7°C° 0 mm 1 mps 635 mmHg 91%
    22:00 -8°C° 0 mm 1 mps 635 mmHg 90%
    23:00 -8°C° 0 mm 1 mps 635 mmHg 86%

    27 March, Wednesday

    Time Temperature Precipitation Wind Pressure Humidity
    00:00 -8°C° 0 mm 1 mps 635 mmHg 83%
    01:00 -8°C° 0 mm 1 mps 635 mmHg 80%
    02:00 -7°C° 0 mm 1 mps 635 mmHg 79%
    03:00 -7°C° 0 mm 1 mps 635 mmHg 79%
    04:00 -6°C° 0 mm 1 mps 635 mmHg 79%
    05:00 -6°C° 0 mm 1 mps 635 mmHg 78%
    06:00 -6°C° 0 mm 1 mps 635 mmHg 78%
    07:00 -6°C° 0 mm 1 mps 636 mmHg 78%
    08:00 -3°C° 0 mm 1 mps 636 mmHg 76%
    09:00 -3°C° 0 mm 2 mps 637 mmHg 75%
    10:00 -2°C° 0 mm 2 mps 637 mmHg 73%
    11:00 -1°C° 0 mm 2 mps 637 mmHg 76%
    12:00 -1°C° 0 mm 2 mps 637 mmHg 79%
    13:00 +1°C° 0 mm 2 mps 637 mmHg 83%
    14:00 +1°C° 0 mm 2 mps 637 mmHg 83%
    15:00 +1°C° 0 mm 2 mps 637 mmHg 83%
    16:00 +1°C° 0 mm 2 mps 637 mmHg 84%
    17:00 -1°C° 0 mm 2 mps 637 mmHg 87%
    18:00 -3°C° 0 mm 2 mps 637 mmHg 91%
    19:00 -4°C° 0 mm 2 mps 637 mmHg 95%
    20:00 -2°C° 0 mm 1 mps 637 mmHg 95%
    21:00 -3°C° 0 mm 1 mps 637 mmHg 94%
    22:00 -3°C° 0 mm 1 mps 637 mmHg 94%
    23:00 -3°C° 0 mm 1 mps 637 mmHg 93%

    28 March, Thursday

    Time Temperature Precipitation Wind Pressure Humidity
    00:00 -4°C° 0 mm 1 mps 637 mmHg 91%
    01:00 -4°C° 0 mm 1 mps 637 mmHg 89%
    02:00 -6°C° 0 mm 1 mps 637 mmHg 87%
    03:00 -6°C° 0 mm 1 mps 637 mmHg 84%
    04:00 -6°C° 0 mm 1 mps 637 mmHg 81%
    05:00 -4°C° 0 mm 1 mps 637 mmHg 81%
    06:00 -4°C° 0 mm 1 mps 637 mmHg 80%
    07:00 -3°C° 0 mm 1 mps 638 mmHg 80%
    08:00 -3°C° 0 mm 2 mps 638 mmHg 80%
    09:00 -1°C° 0 mm 2 mps 639 mmHg 80%
    10:00 +2°C° 0 mm 2 mps 639 mmHg 80%
    11:00 +2°C° 0 mm 2 mps 639 mmHg 81%
    12:00 +3°C° 0 mm 2 mps 639 mmHg 82%
    13:00 +4°C° 0 mm 2 mps 639 mmHg 83%
    14:00 +3°C° 0.1 mm 2 mps 639 mmHg 84%
    15:00 +3°C° 0.1 mm 2 mps 639 mmHg 84%
    16:00 +3°C° 0.1 mm 2 mps 639 mmHg 84%
    17:00 +2°C° 0 mm 2 mps 638 mmHg 88%
    18:00 +1°C° 0 mm 2 mps 638 mmHg 92%
    19:00 -1°C° 0 mm 2 mps 638 mmHg 96%
    20:00 0°C° 0 mm 1 mps 638 mmHg 95%
    21:00 -1°C° 0 mm 1 mps 638 mmHg 94%
    22:00 -1°C° 0 mm 1 mps 638 mmHg 93%
    23:00 -2°C° 0 mm 1 mps 638 mmHg 90%

    29 March, Friday

    Time Temperature Precipitation Wind Pressure Humidity
    00:00 -2°C° 0 mm 1 mps 638 mmHg 87%
    01:00 -2°C° 0 mm 1 mps 638 mmHg 85%
    02:00 -4°C° 0 mm 2 mps 638 mmHg 83%
    03:00 -4°C° 0 mm 2 mps 638 mmHg 81%
    04:00 -4°C° 0 mm 2 mps 638 mmHg 79%
    05:00 -4°C° 0 mm 2 mps 638 mmHg 79%
    06:00 -4°C° 0 mm 2 mps 638 mmHg 78%
    07:00 -3°C° 0 mm 2 mps 639 mmHg 78%
    08:00 +1°C° 0 mm 1 mps 639 mmHg 75%
    09:00 +3°C° 0 mm 1 mps 640 mmHg 72%
    10:00 +5°C° 0 mm 1 mps 640 mmHg 69%
    11:00 +6°C° 0 mm 1 mps 640 mmHg 67%
    12:00 +6°C° 0 mm 1 mps 640 mmHg 66%
    13:00 +6°C° 0 mm 0 mps 640 mmHg 65%
    14:00 +7°C° 0 mm 1 mps 640 mmHg 67%
    15:00 +7°C° 0 mm 1 mps 639 mmHg 69%
    16:00 +6°C° 0 mm 1 mps 639 mmHg 70%
    17:00 +4°C° 0 mm 1 mps 638 mmHg 77%
    18:00 +2°C° 0 mm 0 mps 638 mmHg 83%
    19:00 0°C° 0 mm 0 mps 637 mmHg 89%
    20:00 0°C° 0 mm 0 mps 638 mmHg 87%
    21:00 0°C° 0 mm 1 mps 638 mmHg 85%
    22:00 0°C° 0 mm 1 mps 638 mmHg 83%
    23:00 0°C° 0 mm 1 mps 638 mmHg 81%
    Show more